EJU79GR EKCH-EHAM

Flight info

Callsign EJU79GR
Flight time 1h 7m
Altitude 36000
Route LANGO M611 ALASA DCT WANZA N872 KUBAT T200 BLUFA
Aircraft A320/M-SDE3FGHIRWY/LB1

Departure

Time 2026-05-07 16:11
Airport Copenhagen Kastrup Airport (EKCH)

Arrival

Time 2026-05-07 17:18
Airport Amsterdam Airport Schiphol (EHAM)
Time Latitude Longitude Altitude Speed Heading
2026-05-07 15:37 55.62525 12.65682 27 ft 0 kts 359°
2026-05-07 15:59 55.62511 12.65682 25 ft 4 kts 356°
2026-05-07 15:59 55.62484 12.65687 26 ft 4 kts 347°
2026-05-07 16:00 55.62459 12.65702 24 ft 4 kts 324°
2026-05-07 16:00 55.62446 12.65732 28 ft 2 kts 270°
2026-05-07 16:00 55.62446 12.65742 28 ft 0 kts 269°
2026-05-07 16:02 55.62446 12.65733 28 ft 4 kts 269°
2026-05-07 16:03 55.62445 12.65641 24 ft 12 kts 269°
2026-05-07 16:03 55.62443 12.65493 24 ft 11 kts 269°
2026-05-07 16:03 55.62442 12.65370 24 ft 9 kts 269°
2026-05-07 16:03 55.62441 12.65266 24 ft 8 kts 268°
2026-05-07 16:04 55.62418 12.65208 25 ft 7 kts 201°
2026-05-07 16:04 55.62350 12.65204 24 ft 10 kts 178°
2026-05-07 16:04 55.62283 12.65199 24 ft 9 kts 183°
2026-05-07 16:04 55.62226 12.65191 24 ft 8 kts 196°
2026-05-07 16:05 55.62183 12.65148 26 ft 9 kts 212°
2026-05-07 16:05 55.62106 12.65058 24 ft 14 kts 214°
2026-05-07 16:05 55.62034 12.64974 25 ft 11 kts 213°
2026-05-07 16:05 55.61961 12.64891 23 ft 16 kts 213°
2026-05-07 16:06 55.61856 12.64767 24 ft 20 kts 212°
2026-05-07 16:06 55.61726 12.64621 25 ft 22 kts 214°
2026-05-07 16:06 55.61616 12.64492 26 ft 15 kts 210°
2026-05-07 16:06 55.61526 12.64391 24 ft 15 kts 213°
2026-05-07 16:07 55.61439 12.64291 24 ft 15 kts 213°
2026-05-07 16:07 55.61352 12.64193 25 ft 17 kts 213°
2026-05-07 16:07 55.61245 12.64069 24 ft 21 kts 212°
2026-05-07 16:07 55.61107 12.63912 25 ft 24 kts 212°
2026-05-07 16:08 55.60985 12.63771 25 ft 17 kts 213°
2026-05-07 16:08 55.60895 12.63666 24 ft 13 kts 213°
2026-05-07 16:08 55.60828 12.63594 25 ft 9 kts 199°
2026-05-07 16:08 55.60792 12.63601 25 ft 8 kts 156°
2026-05-07 16:09 55.60744 12.63687 24 ft 10 kts 131°
2026-05-07 16:09 55.60704 12.63769 24 ft 8 kts 129°
2026-05-07 16:09 55.60679 12.63834 25 ft 5 kts 109°
2026-05-07 16:09 55.60688 12.63884 26 ft 7 kts 54°
2026-05-07 16:10 55.60734 12.63954 26 ft 10 kts 41°
2026-05-07 16:10 55.60869 12.64163 25 ft 57 kts 41°
2026-05-07 16:10 55.61329 12.64879 26 ft 119 kts 41°
2026-05-07 16:10 55.62075 12.66017 173 ft 151 kts 38°
2026-05-07 16:11 55.62866 12.67218 866 ft 151 kts 39°
2026-05-07 16:11 55.63682 12.68484 1396 ft 165 kts 40°
2026-05-07 16:11 55.64599 12.69911 1784 ft 185 kts 40°
2026-05-07 16:11 55.65616 12.71493 2149 ft 206 kts 39°
2026-05-07 16:12 55.66777 12.73248 2520 ft 232 kts 38°
2026-05-07 16:12 55.68058 12.75176 3093 ft 250 kts 39°
2026-05-07 16:12 55.69216 12.77518 3946 ft 258 kts 58°
2026-05-07 16:12 55.69800 12.80561 4862 ft 266 kts 82°
2026-05-07 16:13 55.69633 12.83846 5757 ft 272 kts 107°
2026-05-07 16:13 55.68700 12.86775 6661 ft 277 kts 132°
2026-05-07 16:13 55.67145 12.88778 7547 ft 280 kts 156°
2026-05-07 16:13 55.65313 12.89986 8422 ft 283 kts 159°
2026-05-07 16:14 55.63411 12.90972 9278 ft 288 kts 170°
2026-05-07 16:14 55.61397 12.91053 10109 ft 293 kts 187°
2026-05-07 16:14 55.59370 12.90121 10511 ft 314 kts 204°
2026-05-07 16:14 55.57483 12.87977 10873 ft 331 kts 223°
2026-05-07 16:15 55.55887 12.85058 11536 ft 337 kts 227°
2026-05-07 16:15 55.54260 12.82047 12284 ft 341 kts 227°
2026-05-07 16:15 55.52823 12.78714 13051 ft 343 kts 239°
2026-05-07 16:15 55.51817 12.74900 13848 ft 344 kts 252°
2026-05-07 16:16 55.51311 12.70712 14543 ft 346 kts 265°
2026-05-07 16:16 55.51166 12.66512 15213 ft 348 kts 267°
2026-05-07 16:16 55.51018 12.62233 15888 ft 351 kts 266°
2026-05-07 16:16 55.50862 12.57922 16554 ft 353 kts 266°
2026-05-07 16:17 55.50697 12.53582 17220 ft 356 kts 266°
2026-05-07 16:17 55.50528 12.49209 17873 ft 359 kts 266°
2026-05-07 16:17 55.50356 12.44800 18507 ft 362 kts 266°
2026-05-07 16:17 55.50182 12.40356 19059 ft 364 kts 266°
2026-05-07 16:18 55.50003 12.35880 19608 ft 368 kts 266°
2026-05-07 16:18 55.49821 12.31365 20157 ft 371 kts 266°
2026-05-07 16:18 55.49425 12.26863 20719 ft 374 kts 256°
2026-05-07 16:18 55.48524 12.22544 21248 ft 378 kts 244°
2026-05-07 16:19 55.47327 12.18399 21797 ft 381 kts 244°
2026-05-07 16:19 55.46134 12.14208 22343 ft 384 kts 244°
2026-05-07 16:19 55.44936 12.09980 22871 ft 387 kts 244°
2026-05-07 16:19 55.43727 12.05715 23392 ft 391 kts 244°
2026-05-07 16:20 55.42506 12.01419 23874 ft 394 kts 244°
2026-05-07 16:20 55.41271 11.97095 24295 ft 397 kts 244°
2026-05-07 16:20 55.40021 11.92746 24698 ft 400 kts 244°
2026-05-07 16:20 55.38755 11.88365 25102 ft 403 kts 244°
2026-05-07 16:21 55.37477 11.83963 25507 ft 405 kts 244°
2026-05-07 16:21 55.36206 11.79593 25874 ft 408 kts 244°
2026-05-07 16:21 55.34910 11.75132 26231 ft 412 kts 244°
2026-05-07 16:21 55.33606 11.70641 26611 ft 414 kts 244°
2026-05-07 16:22 55.32292 11.66123 26981 ft 417 kts 244°
2026-05-07 16:22 55.30965 11.61582 27337 ft 419 kts 243°
2026-05-07 16:22 55.29624 11.57013 27703 ft 422 kts 243°
2026-05-07 16:22 55.28277 11.52430 28047 ft 425 kts 243°
2026-05-07 16:23 55.26919 11.47812 28394 ft 427 kts 243°
2026-05-07 16:23 55.25552 11.43168 28728 ft 430 kts 243°
2026-05-07 16:23 55.24177 11.38499 29046 ft 433 kts 243°
2026-05-07 16:23 55.22790 11.33794 29320 ft 436 kts 243°
2026-05-07 16:24 55.21388 11.29055 29627 ft 439 kts 243°
2026-05-07 16:24 55.19975 11.24303 29939 ft 441 kts 243°
2026-05-07 16:24 55.18553 11.19530 30235 ft 444 kts 243°
2026-05-07 16:24 55.17120 11.14730 30479 ft 446 kts 243°
2026-05-07 16:25 55.15681 11.09912 30726 ft 448 kts 243°
2026-05-07 16:25 55.14235 11.05076 30965 ft 450 kts 243°
2026-05-07 16:25 55.12783 11.00219 31200 ft 452 kts 243°
2026-05-07 16:25 55.11320 10.95343 31435 ft 453 kts 243°
2026-05-07 16:26 55.09851 10.90467 31713 ft 454 kts 243°
2026-05-07 16:26 55.08381 10.85601 32042 ft 453 kts 243°
2026-05-07 16:26 55.06908 10.80736 32348 ft 453 kts 243°
2026-05-07 16:26 55.05934 10.77520 32550 ft 453 kts 243°
2026-05-07 16:27 55.03962 10.71023 32937 ft 454 kts 243°
2026-05-07 16:27 55.02485 10.66158 33190 ft 455 kts 243°
2026-05-07 16:27 55.01001 10.61281 33475 ft 455 kts 243°
2026-05-07 16:27 54.99516 10.56413 33771 ft 455 kts 243°
2026-05-07 16:28 54.98029 10.51549 34074 ft 455 kts 243°
2026-05-07 16:28 54.96536 10.46689 34341 ft 455 kts 242°
2026-05-07 16:28 54.95042 10.41838 34627 ft 454 kts 242°
2026-05-07 16:28 54.93550 10.37005 34902 ft 453 kts 242°
2026-05-07 16:29 54.92061 10.32188 35187 ft 452 kts 242°
2026-05-07 16:29 54.90577 10.27386 35473 ft 450 kts 242°
2026-05-07 16:29 54.89100 10.22608 35747 ft 449 kts 242°
2026-05-07 16:29 54.87622 10.17836 36007 ft 447 kts 242°
2026-05-07 16:30 54.86149 10.13085 36112 ft 445 kts 242°
2026-05-07 16:30 54.83220 10.03699 36126 ft 441 kts 242°
2026-05-07 16:31 54.80273 9.94384 36122 ft 440 kts 240°
2026-05-07 16:31 54.77642 9.86835 36121 ft 440 kts 238°
2026-05-07 16:32 54.74319 9.77930 36119 ft 440 kts 237°
2026-05-07 16:32 54.70989 9.69019 36116 ft 442 kts 237°
2026-05-07 16:33 54.67693 9.60055 36111 ft 442 kts 238°
2026-05-07 16:33 54.64412 9.51080 36109 ft 442 kts 238°
2026-05-07 16:34 54.61116 9.42119 36109 ft 442 kts 237°
2026-05-07 16:34 54.57814 9.33196 36111 ft 441 kts 237°
2026-05-07 16:35 54.54509 9.24286 36109 ft 441 kts 237°
2026-05-07 16:35 54.51195 9.15386 36108 ft 441 kts 237°
2026-05-07 16:36 54.47869 9.06510 36105 ft 441 kts 237°
2026-05-07 16:36 54.44538 8.97645 36102 ft 442 kts 237°
2026-05-07 16:37 54.41203 8.88783 36093 ft 442 kts 237°
2026-05-07 16:37 54.37861 8.79934 36097 ft 442 kts 237°
2026-05-07 16:38 54.34503 8.71090 36106 ft 442 kts 237°
2026-05-07 16:38 54.31137 8.62269 36108 ft 442 kts 236°
2026-05-07 16:39 54.27772 8.53454 36107 ft 442 kts 236°
2026-05-07 16:39 54.24399 8.44655 36107 ft 443 kts 236°
2026-05-07 16:40 54.20502 8.36556 36105 ft 442 kts 223°
2026-05-07 16:40 54.16032 8.29356 36109 ft 442 kts 223°
2026-05-07 16:41 54.11571 8.22143 36116 ft 442 kts 223°
2026-05-07 16:41 54.07122 8.14938 36117 ft 441 kts 223°
2026-05-07 16:42 54.02697 8.07798 36116 ft 441 kts 223°
2026-05-07 16:42 53.98232 8.00633 36118 ft 441 kts 223°
2026-05-07 16:43 53.93767 7.93487 36120 ft 440 kts 223°
2026-05-07 16:43 53.89311 7.86381 36123 ft 439 kts 223°
2026-05-07 16:44 53.84849 7.79294 36112 ft 439 kts 223°
2026-05-07 16:44 53.80390 7.72212 36104 ft 440 kts 222°
2026-05-07 16:45 53.75929 7.65141 36096 ft 440 kts 223°
2026-05-07 16:45 53.71457 7.58104 36104 ft 438 kts 223°
2026-05-07 16:46 53.66999 7.51106 36110 ft 437 kts 222°
2026-05-07 16:46 53.62548 7.44140 36110 ft 436 kts 223°
2026-05-07 16:47 53.58100 7.37194 36113 ft 436 kts 222°
2026-05-07 16:47 53.55874 7.33729 35957 ft 436 kts 222°
2026-05-07 16:47 53.53679 7.30311 35710 ft 435 kts 222°
2026-05-07 16:47 53.51456 7.26862 35457 ft 435 kts 222°
2026-05-07 16:48 53.49231 7.23418 35218 ft 433 kts 222°
2026-05-07 16:48 53.47024 7.19997 34973 ft 431 kts 222°
2026-05-07 16:48 53.44830 7.16604 34533 ft 427 kts 222°
2026-05-07 16:48 53.42647 7.13239 34016 ft 425 kts 222°
2026-05-07 16:49 53.40476 7.09895 33458 ft 422 kts 222°
2026-05-07 16:49 53.38330 7.06587 32945 ft 418 kts 222°
2026-05-07 16:49 53.36198 7.03302 32435 ft 414 kts 222°
2026-05-07 16:49 53.34085 7.00052 31926 ft 411 kts 222°
2026-05-07 16:50 53.31950 6.96905 31410 ft 408 kts 220°
2026-05-07 16:50 53.29768 6.93904 30902 ft 405 kts 218°
2026-05-07 16:50 53.27561 6.91001 30407 ft 402 kts 217°
2026-05-07 16:50 53.25356 6.88149 29852 ft 400 kts 217°
2026-05-07 16:51 53.23166 6.85319 29268 ft 397 kts 218°
2026-05-07 16:51 53.20997 6.82493 28708 ft 394 kts 218°
2026-05-07 16:51 53.18851 6.79666 28144 ft 392 kts 218°
2026-05-07 16:51 53.16725 6.76843 27617 ft 390 kts 218°
2026-05-07 16:52 53.14615 6.74034 27088 ft 387 kts 218°
2026-05-07 16:52 53.12515 6.71242 26566 ft 385 kts 218°
2026-05-07 16:52 53.10423 6.68469 26055 ft 383 kts 218°
2026-05-07 16:52 53.08346 6.65724 25649 ft 378 kts 218°
2026-05-07 16:53 53.06307 6.63038 25398 ft 370 kts 218°
2026-05-07 16:53 53.04310 6.60412 25154 ft 363 kts 218°
2026-05-07 16:53 53.02347 6.57832 24803 ft 358 kts 218°
2026-05-07 16:53 53.00403 6.55278 24354 ft 356 kts 218°
2026-05-07 16:54 52.98469 6.52737 23891 ft 354 kts 219°
2026-05-07 16:54 52.96543 6.50205 23401 ft 353 kts 219°
2026-05-07 16:54 52.94651 6.47725 22935 ft 350 kts 219°
2026-05-07 16:54 52.92749 6.45238 22486 ft 347 kts 219°
2026-05-07 16:55 52.90864 6.42773 22040 ft 344 kts 219°
2026-05-07 16:55 52.88989 6.40322 21599 ft 342 kts 219°
2026-05-07 16:55 52.87128 6.37891 21162 ft 340 kts 219°
2026-05-07 16:55 52.85276 6.35476 20731 ft 338 kts 219°
2026-05-07 16:56 52.83536 6.32875 20304 ft 336 kts 229°
2026-05-07 16:56 52.82132 6.29804 19879 ft 334 kts 236°
2026-05-07 16:56 52.79499 6.23502 19039 ft 332 kts 236°
2026-05-07 16:57 52.78184 6.20373 18623 ft 331 kts 236°
2026-05-07 16:57 52.76869 6.17251 18184 ft 331 kts 236°
2026-05-07 16:57 52.75556 6.14143 17753 ft 329 kts 236°
2026-05-07 16:57 52.74250 6.11053 17340 ft 327 kts 235°
2026-05-07 16:58 52.72950 6.07981 16937 ft 325 kts 235°
2026-05-07 16:58 52.71662 6.04932 16537 ft 323 kts 235°
2026-05-07 16:58 52.70378 6.01903 16150 ft 321 kts 235°
2026-05-07 16:58 52.69098 5.98896 15759 ft 320 kts 235°
2026-05-07 16:59 52.67821 5.95898 15373 ft 319 kts 235°
2026-05-07 16:59 52.66552 5.92914 14987 ft 317 kts 235°
2026-05-07 16:59 52.65290 5.89940 14600 ft 316 kts 235°
2026-05-07 16:59 52.64028 5.86974 14214 ft 316 kts 235°
2026-05-07 17:00 52.62765 5.84016 13819 ft 316 kts 234°
2026-05-07 17:00 52.61504 5.81070 13403 ft 314 kts 235°
2026-05-07 17:00 52.60251 5.78144 13023 ft 312 kts 235°
2026-05-07 17:00 52.59007 5.75241 12632 ft 310 kts 235°
2026-05-07 17:01 52.57766 5.72351 12240 ft 309 kts 235°
2026-05-07 17:01 52.56529 5.69472 11846 ft 307 kts 235°
2026-05-07 17:01 52.55297 5.66609 11449 ft 306 kts 235°
2026-05-07 17:01 52.54084 5.63796 11262 ft 296 kts 235°
2026-05-07 17:02 52.52912 5.61079 10927 ft 288 kts 235°
2026-05-07 17:02 52.51764 5.58418 10339 ft 283 kts 236°
2026-05-07 17:02 52.50849 5.55626 9985 ft 275 kts 250°
2026-05-07 17:02 52.50221 5.52649 9909 ft 277 kts 251°
2026-05-07 17:03 52.49579 5.49647 9811 ft 280 kts 251°
2026-05-07 17:03 52.48929 5.46641 9704 ft 279 kts 250°
2026-05-07 17:03 52.48279 5.43640 9592 ft 280 kts 250°
2026-05-07 17:03 52.47629 5.40639 9485 ft 279 kts 250°
2026-05-07 17:04 52.46981 5.37650 9378 ft 278 kts 250°
2026-05-07 17:04 52.46332 5.34661 9273 ft 278 kts 250°
2026-05-07 17:04 52.45680 5.31672 9152 ft 279 kts 250°
2026-05-07 17:04 52.45027 5.28676 9046 ft 278 kts 249°
2026-05-07 17:05 52.44378 5.25694 8937 ft 278 kts 250°
2026-05-07 17:05 52.43733 5.22724 8826 ft 276 kts 249°
2026-05-07 17:05 52.43088 5.19758 8723 ft 276 kts 250°
2026-05-07 17:05 52.42441 5.16798 8611 ft 276 kts 249°
2026-05-07 17:06 52.41792 5.13833 8501 ft 276 kts 249°
2026-05-07 17:06 52.41142 5.10867 8389 ft 276 kts 249°
2026-05-07 17:06 52.40495 5.07914 8285 ft 275 kts 249°
2026-05-07 17:06 52.39850 5.04967 8187 ft 275 kts 249°
2026-05-07 17:07 52.39205 5.02031 8067 ft 274 kts 249°
2026-05-07 17:07 52.38566 4.99133 7961 ft 274 kts 249°
2026-05-07 17:07 52.37918 4.96197 7857 ft 275 kts 249°
2026-05-07 17:07 52.37268 4.93260 7746 ft 274 kts 249°
2026-05-07 17:08 52.36623 4.90344 7645 ft 272 kts 249°
2026-05-07 17:08 52.35978 4.87436 7538 ft 271 kts 248°
2026-05-07 17:08 52.35335 4.84537 7429 ft 271 kts 248°
2026-05-07 17:08 52.34696 4.81669 7312 ft 263 kts 248°
2026-05-07 17:09 52.34094 4.78971 7196 ft 252 kts 248°
2026-05-07 17:09 52.33553 4.76314 7082 ft 242 kts 257°
2026-05-07 17:09 52.33445 4.73588 7004 ft 244 kts 273°
2026-05-07 17:09 52.33778 4.70876 6743 ft 242 kts 281°
2026-05-07 17:10 52.34162 4.68200 6506 ft 241 kts 281°
2026-05-07 17:10 52.34434 4.65513 6265 ft 238 kts 268°
2026-05-07 17:10 52.34213 4.62857 6040 ft 236 kts 250°
2026-05-07 17:10 52.33518 4.60468 5808 ft 231 kts 234°
2026-05-07 17:11 52.32650 4.58248 5583 ft 232 kts 235°
2026-05-07 17:11 52.31784 4.56019 5363 ft 233 kts 236°
2026-05-07 17:11 52.30919 4.53783 5135 ft 233 kts 236°
2026-05-07 17:11 52.30053 4.51543 4910 ft 233 kts 237°
2026-05-07 17:12 52.29190 4.49309 4678 ft 230 kts 236°
2026-05-07 17:12 52.28341 4.47114 4381 ft 226 kts 236°
2026-05-07 17:12 52.27477 4.45054 4160 ft 219 kts 224°
2026-05-07 17:12 52.26216 4.43753 3944 ft 209 kts 193°
2026-05-07 17:13 52.24815 4.43633 3739 ft 200 kts 165°
2026-05-07 17:13 52.23591 4.44533 3532 ft 194 kts 145°
2026-05-07 17:13 52.22489 4.45836 3324 ft 192 kts 133°
2026-05-07 17:13 52.21669 4.47484 3124 ft 189 kts 118°
2026-05-07 17:14 52.21159 4.49437 2946 ft 187 kts 102°
2026-05-07 17:14 52.21014 4.51545 2804 ft 181 kts 86°
2026-05-07 17:14 52.21243 4.53486 2594 ft 174 kts 67°
2026-05-07 17:14 52.21798 4.55190 2417 ft 168 kts 60°
2026-05-07 17:15 52.22394 4.56799 2335 ft 165 kts 59°
2026-05-07 17:15 52.23000 4.58391 2175 ft 165 kts 58°
2026-05-07 17:15 52.23606 4.59968 1975 ft 162 kts 58°
2026-05-07 17:15 52.24193 4.61488 1759 ft 153 kts 58°
2026-05-07 17:16 52.24738 4.62901 1553 ft 142 kts 57°
2026-05-07 17:16 52.25268 4.64274 1368 ft 140 kts 57°
2026-05-07 17:16 52.25782 4.65604 1178 ft 138 kts 56°
2026-05-07 17:16 52.26298 4.66928 1007 ft 143 kts 56°
2026-05-07 17:17 52.26829 4.68296 811 ft 143 kts 57°
2026-05-07 17:17 52.27355 4.69656 612 ft 140 kts 57°
2026-05-07 17:17 52.27854 4.70979 415 ft 134 kts 57°
2026-05-07 17:17 52.28360 4.72281 247 ft 137 kts 57°
2026-05-07 17:18 52.28867 4.73612 63 ft 139 kts 57°
2026-05-07 17:18 52.29363 4.74902 -2 ft 121 kts 57°
2026-05-07 17:18 52.29644 4.75630 -1 ft 78 kts 58°
2026-05-07 17:18 52.29859 4.76188 -3 ft 48 kts 58°
2026-05-07 17:19 52.29975 4.76474 -2 ft 22 kts 46°
2026-05-07 17:19 52.30050 4.76555 -2 ft 19 kts 25°
2026-05-07 17:19 52.30167 4.76658 -1 ft 19 kts 29°
2026-05-07 17:19 52.30226 4.76710 -1 ft 3 kts 27°
2026-05-07 17:20 52.30285 4.76765 -1 ft 16 kts 39°
2026-05-07 17:20 52.30353 4.76928 -1 ft 19 kts 58°
2026-05-07 17:20 52.30426 4.77119 -1 ft 21 kts 58°
2026-05-07 17:20 52.30499 4.77313 -1 ft 18 kts 58°
2026-05-07 17:21 52.30556 4.77463 -1 ft 11 kts 58°
2026-05-07 17:21 52.30611 4.77564 -1 ft 13 kts 33°
2026-05-07 17:21 52.30709 4.77592 -1 ft 16 kts
2026-05-07 17:21 52.30824 4.77605 -1 ft 18 kts
2026-05-07 17:22 52.30955 4.77615 -1 ft 20 kts
2026-05-07 17:22 52.31099 4.77628 -1 ft 22 kts
2026-05-07 17:22 52.31255 4.77643 -1 ft 23 kts
2026-05-07 17:22 52.31390 4.77655 -1 ft 17 kts
2026-05-07 17:23 52.31498 4.77579 -1 ft 19 kts 315°
2026-05-07 17:23 52.31568 4.77439 -1 ft 15 kts 292°
2026-05-07 17:23 52.31574 4.77273 -1 ft 14 kts 266°
2026-05-07 17:23 52.31569 4.77100 -1 ft 18 kts 268°
2026-05-07 17:24 52.31560 4.76862 -1 ft 23 kts 266°
2026-05-07 17:24 52.31552 4.76605 -1 ft 21 kts 266°
2026-05-07 17:24 52.31543 4.76364 -1 ft 21 kts 267°
2026-05-07 17:24 52.31535 4.76134 -1 ft 19 kts 266°
2026-05-07 17:25 52.31528 4.75919 -1 ft 19 kts 267°
2026-05-07 17:25 52.31521 4.75711 -1 ft 17 kts 266°
2026-05-07 17:25 52.31517 4.75587 -1 ft 9 kts 267°
2026-05-07 17:25 52.31510 4.75486 -1 ft 8 kts 250°
2026-05-07 17:26 52.31469 4.75439 -1 ft 8 kts 186°
2026-05-07 17:26 52.31386 4.75445 -1 ft 13 kts 177°
2026-05-07 17:26 52.31298 4.75452 -1 ft 12 kts 176°
2026-05-07 17:26 52.31219 4.75460 -1 ft 11 kts 177°
2026-05-07 17:27 52.31158 4.75465 -1 ft 7 kts 181°
2026-05-07 17:27 52.31122 4.75425 -1 ft 6 kts 231°
2026-05-07 17:27 52.31085 4.75401 -1 ft 6 kts 156°
2026-05-07 17:27 52.31053 4.75435 -1 ft 5 kts 147°
2026-05-07 17:28 52.31034 4.75454 -1 ft 2 kts 148°
2026-05-07 17:28 52.31030 4.75459 -1 ft 0 kts 148°